Location: Artiguedieu
(43.5000°N, 0.5454°E)
Time: 19:15:59
(UTC+00:00)

Vanguard 1 - Pass Details

Date: 03 August 2021
Orbit: 652 x 3831 km, 34.3° (Epoch: 19 September)

Event Time Altitude Azimuth Distance (km) Brightness Sun altitude
Rises 11:31:15 0° 249° (WSW) 3,068 12.7 63.0°
Reaches altitude 10° 11:33:26 10° 240° (WSW) 2,280 12.2 63.1°
Maximum altitude 11:38:09 37° 173° (S) 1,457 12.3 63.3°
Drops below altitude 10° 11:45:23 10° 109° (ESE) 3,509 13.2 63.6°
Sets 11:49:35 0° 103° (ESE) 5,005 13.8 63.7°
